This demonstration page uses our WeatherBlox Daily Observations layout. Learn more.

Hourly Observations for December 5, 2019

Temp ( °F °C ) Dew Point ( °F °C ) Humidity (%) Winds ( mph kmh ) Pressure ( in mb ) Visibility ( mi km ) Precip ( " mm )
12:15 am 00:15 Clear 33 0.6 32 -0.2 94 94 SSW 5 7 30 1016 10 16.0934 0 0
12:35 am 00:35 Clear 32 0 31 -0.3 98 98 SSW 3 6 30 1016 10 16.0934 0 0
12:55 am 00:55 Clear 33 0.5 32 0 96 96 SSW 3 6 29.99 1016 10 16.0934 0 0
1:15 am 01:15 Clear 32 0 31 -0.8 94 94 Calm 29.99 1016 10 16.0934 0 0
1:35 am 01:35 Clear 32 0 31 -0.6 96 96 Calm 29.98 1015 10 16.0934 0 0
1:55 am 01:55 Clear 32 0 31 -0.4 97 97 Calm 29.98 1015 10 16.0934 0 0
2:15 am 02:15 Clear 30 -1.3 29 -1.9 96 96 Calm 29.99 1015 10 16.0934 0 0
2:35 am 02:35 Clear 30 -1.2 29 -1.5 98 98 Calm 29.98 1015 10 16.0934 0 0
2:55 am 02:55 Clear 31 -0.4 30 -0.9 96 96 Calm 29.97 1015 10 16.0934 0 0
3:15 am 03:15 Clear 31 -0.6 28 -2 90 90 SW 3 6 29.97 1015 10 16.0934 0 0
3:35 am 03:35 Clear 30 -0.9 29 -1.4 96 96 Calm 29.97 1015 10 16.0934 0 0
3:55 am 03:55 Clear 31 -0.5 30 -1 96 96 SW 3 6 29.96 1015 10 16.0934 0 0
4:15 am 04:15 Clear 30 -1.3 28 -2.4 92 92 Calm 29.97 1015 10 16.0934 0 0
4:35 am 04:35 Clear 32 -0.2 30 -1.2 93 93 W 3 6 29.96 1014 10 16.0934 0 0
4:55 am 04:55 Clear 27 -2.6 26 -3.2 96 96 W 3 6 29.98 1015 10 16.0934 0 0
5:15 am 05:15 Clear 30 -1.1 29 -1.4 98 98 W 3 6 29.96 1015 10 16.0934 0 0
5:35 am 05:35 Clear 30 -1.3 29 -1.8 96 96 Calm 29.97 1015 10 16.0934 0 0
5:55 am 05:55 Clear 28 -2.5 26 -3.1 96 96 Calm 29.98 1015 10 16.0934 0 0
6:15 am 06:15 Clear 31 -0.8 30 -1.3 96 96 WSW 3 6 29.96 1015 10 16.0934 0 0
6:35 am 06:35 Clear 29 -1.4 28 -2.2 94 94 WSW 3 6 29.97 1015 10 16.0934 0 0
6:55 am 06:55 Clear 29 -1.7 27 -2.6 94 94 Calm 29.97 1015 10 16.0934 0 0
7:15 am 07:15 Clear 28 -2.4 26 -3.2 94 94 W 3 6 29.98 1015 10 16.0934 0 0
7:35 am 07:35 Clear 32 0 29 -1.5 90 90 W 3 6 29.95 1014 10 16.0934 0 0
7:55 am 07:55 Sunny 31 -0.6 29 -1.8 92 92 Calm 29.97 1015 10 16.0934 0 0
8:15 am 08:15 Sunny 30 -1 28 -2.1 92 92 Calm 29.97 1015 10 16.0934 0 0
8:35 am 08:35 Sunny 29 -1.6 27 -2.9 91 91 Calm 29.98 1015 10 16.0934 0 0
8:55 am 08:55 Sunny 30 -1.1 29 -1.9 94 94 Calm 29.97 1015 10 16.0934 0 0
9:15 am 09:15 Sunny 34 1 31 -0.3 91 91 Calm 29.95 1014 10 16.0934 0 0
9:35 am 09:35 Sunny 37 3 35 1.5 90 90 Calm 29.94 1014 10 16.0934 0 0
9:55 am 09:55 Sunny 42 5.7 36 2.1 78 78 Calm 29.91 1013 10 16.0934 0 0
10:15 am 10:15 Sunny 45 7 36 2.2 72 72 SSW 5 7 29.9 1013 10 16.0934 0 0
10:35 am 10:35 Sunny 46 7.9 37 2.8 70 70 NNW 5 7 29.91 1013 10 16.0934 0 0
10:55 am 10:55 Sunny 42 5.3 34 1.2 75 75 NW 7 11 29.95 1014 10 16.0934 0 0
11:15 am 11:15 Sunny 42 5.5 35 1.7 77 77 NW 5 7 29.93 1014 10 16.0934 0 0
11:35 am 11:35 Sunny 44 6.6 36 2 73 73 NW 6 9 29.92 1013 10 16.0934 0 0
11:55 am 11:55 Sunny 44 6.9 35 1.8 70 70 NW 6 9 29.91 1013 10 16.0934 0 0
12:15 pm 12:15 Sunny 46 7.7 36 2.2 68 68 NW 5 7 29.89 1012 10 16.0934 0 0
12:35 pm 12:35 Sunny 46 8 37 2.6 69 69 NNW 9 15 29.89 1012 10 16.0934 0 0
12:55 pm 12:55 Sunny 47 8.1 37 3 71 71 NNW 8 13 29.89 1012 10 16.0934 0 0
1:15 pm 13:15 Sunny 47 8.5 37 2.9 68 68 NNW 8 13 29.89 1012 10 16.0934 0 0
1:35 pm 13:35 Sunny 48 9.1 38 3.2 67 67 NNW 10 17 29.88 1012 10 16.0934 0 0
1:55 pm 13:55 Sunny 49 9.2 38 3.2 66 66 N 8 13 29.88 1012 10 16.0934 0 0
2:15 pm 14:15 Sunny 50 9.9 38 3.4 64 64 NNW 9 15 29.88 1012 10 16.0934 0 0
2:35 pm 14:35 Sunny 49 9.5 37 2.9 64 64 NNW 8 13 29.9 1012 10 16.0934 0 0
2:55 pm 14:55 Sunny 47 8.6 37 2.9 68 68 N 7 11 29.92 1013 10 16.0934 0 0
3:15 pm 15:15 Sunny 47 8.1 36 2.4 68 68 N 6 9 29.93 1014 10 16.0934 0 0
3:35 pm 15:35 Sunny 46 7.8 36 2.4 69 69 NNW 7 11 29.95 1014 10 16.0934 0 0
3:55 pm 15:55 Sunny 45 7.3 37 2.5 72 72 NNW 6 9 29.97 1015 10 16.0934 0 0
4:15 pm 16:15 Sunny 45 7.2 36 2 70 70 N 9 15 29.99 1016 10 16.0934 0 0
4:35 pm 16:35 Sunny 44 6.9 35 1.7 70 70 N 13 20 30 1016 10 16.0934 0 0
4:55 pm 16:55 Sunny 44 6.6 35 1.4 70 70 N 12 19 30.02 1017 10 16.0934 0 0
5:15 pm 17:15 Clear 43 6.1 34 1.3 72 72 N 14 22 30.04 1017 10 16.0934 0 0
5:35 pm 17:35 Clear 42 5.8 34 1 72 72 N 16 26 30.05 1018 10 16.0934 0 0
5:55 pm 17:55 Clear 42 5.3 34 1 74 74 N 16 26 30.07 1018 10 16.0934 0 0
6:15 pm 18:15 Clear 40 4.6 33 0.8 77 77 N 15 24 30.09 1019 10 16.0934 0 0
6:35 pm 18:35 Clear 39 4 34 1 81 81 N 12 19 30.11 1020 10 16.0934 0 0
6:55 pm 18:55 Clear 39 3.7 33 0.7 81 81 N 18 30 30.13 1020 10 16.0934 0 0
7:15 pm 19:15 Clear 37 3 33 0.6 84 84 N 16 26 30.15 1021 10 16.0934 0 0
7:35 pm 19:35 Clear 37 3 33 0.5 84 84 N 18 30 30.16 1021 10 16.0934 0 0
7:55 pm 19:55 Clear 37 2.6 33 0.5 86 86 N 14 22 30.17 1022 10 16.0934 0 0
8:15 pm 20:15 Clear 37 2.5 33 0.5 87 87 N 17 28 30.19 1022 10 16.0934 0 0
8:35 pm 20:35 Mostly Cloudy 36 2.2 33 0.5 89 89 N 16 26 30.2 1023 10 16.0934 0 0
8:55 pm 20:55 Cloudy 36 2.2 33 0.6 89 89 N 16 26 30.22 1024 10 16.0934 0 0
9:15 pm 21:15 Cloudy 36 2.2 33 0.7 90 90 N 18 30 30.22 1024 10 16.0934 0 0
9:35 pm 21:35 Cloudy 36 2.1 33 0.7 91 91 N 17 28 30.25 1024 10 16.0934 0 0
9:55 pm 21:55 Cloudy 36 2 33 0.6 91 91 N 22 35 30.27 1025 10 16.0934 0 0
10:15 pm 22:15 Cloudy 35 1.7 33 0.5 92 92 N 18 30 30.28 1025 10 16.0934 0 0
10:35 pm 22:35 Cloudy 35 1.5 33 0.3 92 92 N 17 28 30.29 1026 7 11.26538 0 0
10:55 pm 22:55 Cloudy 35 1.5 32 0.2 91 91 N 16 26 30.3 1026 7 11.26538 0 0
11:15 pm 23:15 Cloudy 34 1.2 32 0.1 92 92 N 17 28 30.31 1027 7 11.26538 0 0
11:35 pm 23:35 Cloudy 34 0.9 31 -0.3 92 92 N 17 28 30.33 1027 10 16.0934 0 0
11:55 pm 23:55 Cloudy 33 0.6 31 -0.7 91 91 N 14 22 30.35 1028 10 16.0934 0 0

Powered by AerisWeather